Location: Milton
(43.5183°N, 79.8775°W)
Time: 04:12:50
(UTC+00:00)

AO-85 - Pass Details

Date: 06 April 2023
Orbit: 516 x 753 km, 64.8° (Epoch: 04 January)

Event Time Altitude Azimuth Distance (km) Brightness Sun altitude
Rises 10:00:37 0° 169° (S) 2,854 ? -10.0°
Reaches altitude 10° 10:03:45 10° 147° (SSE) 1,905 ? -9.5°
Maximum altitude 10:06:11 15° 112° (ESE) 1,571 ? -9.0°
Drops below altitude 10° 10:08:33 10° 76° (ENE) 1,842 ? -8.6°
Sets 10:11:29 0° 53° (NE) 2,703 ? -8.1°
